EST,Max TemperatureF,Mean TemperatureF,Min TemperatureF,Max Dew PointF,MeanDew PointF,Min DewpointF,Max Humidity, Mean Humidity, Min Humidity, Max Sea Level PressureIn, Mean Sea Level PressureIn, Min Sea Level PressureIn, Max VisibilityMiles, Mean VisibilityMiles, Min VisibilityMiles, Max Wind SpeedMPH, Mean Wind SpeedMPH, Max Gust SpeedMPH,PrecipitationIn, CloudCover, Events, WindDirDegrees
2012-11-1,48,45,42,41,38,34,87,73,62,29.53,29.52,29.49,10,10,1,10,4,,0.00,7,,198
2012-11-2,48,44,41,39,34,30,81,67,50,29.63,29.56,29.52,10,10,10,12,3,17,0.00,7,,275
2012-11-3,46,42,39,32,30,27,75,59,49,29.83,29.73,29.62,10,10,10,14,4,18,0.00,7,,309
2012-11-4,42,40,37,30,29,27,70,62,57,29.95,29.89,29.82,10,10,10,15,7,21,0.00,8,,336
2012-11-5,39,32,24,25,19,14,80,56,38,30.13,30.02,29.95,10,10,3,15,7,21,0.15,7,,346
2012-11-6,39,28,17,21,16,10,93,67,31,30.23,30.18,30.13,10,10,9,9,2,,0.00,0,,286
2012-11-7,35,27,19,19,17,10,93,56,35,30.20,30.03,29.84,10,10,10,16,6,25,0.00,5,,11
2012-11-8,39,36,32,30,25,18,81,65,48,29.84,29.79,29.74,10,10,8,23,15,31,0.01,8,,1
2012-11-9,48,40,32,28,23,16,70,52,27,30.11,29.98,29.84,10,10,10,18,9,26,0.00,4,,341
2012-11-10,51,40,30,34,29,25,93,67,35,30.44,30.28,30.09,10,10,6,13,2,,0.00,2,,347
2012-11-11,62,48,33,43,36,28,93,70,42,30.47,30.43,30.38,10,9,1,13,2,18,0.00,4,,194
2012-11-12,64,50,35,55,44,34,100,79,49,30.45,30.36,30.17,10,6,0,21,4,28,0.00,4,,187
2012-11-13,64,47,28,55,39,27,93,76,57,30.44,30.27,30.08,10,9,3,18,8,28,0.30,7,,309
2012-11-14,44,34,24,27,24,19,93,73,39,30.56,30.50,30.44,10,10,6,12,2,17,0.00,1,,333
2012-11-15,42,30,19,27,23,18,93,77,49,30.49,30.40,30.32,10,10,5,8,1,,0.00,0,,279
2012-11-16,41,32,23,27,22,19,93,75,42,30.46,30.35,30.30,10,10,6,10,1,,0.00,0,,322
2012-11-17,46,34,21,28,23,18,93,77,39,30.68,30.59,30.46,10,10,5,10,1,,0.00,0,,340
2012-11-18,46,32,17,28,23,16,93,80,50,30.74,30.67,30.63,10,9,2,5,0,,0.00,0,,115
2012-11-19,48,34,19,28,23,16,93,79,46,30.63,30.47,30.28,10,8,0,4,0,,0.00,1,,200
2012-11-20,48,34,19,27,23,18,93,76,37,30.27,30.19,30.14,10,9,7,5,0,,0.00,0,,200
2012-11-21,48,37,26,28,25,21,93,78,34,30.27,30.22,30.18,10,6,2,6,0,,0.00,0,,6
2012-11-22,,,,,,,,,,,,,,,,,,,,,,
2012-11-23,,,,,,,,,,,,,,,,,,,,,,
2012-11-24,,,,,,,,,,,,,,,,,,,,,,
2012-11-25,,,,,,,,,,,,,,,,,,,,,,
2012-11-26,,,,,,,,,,,,,,,,,,,,,,
2012-11-27,,,,,,,,,,,,,,,,,,,,,,
2012-11-28,35,29,23,25,22,19,86,73,56,30.16,30.14,30.11,10,10,10,7,3,,0.00,3,,224
2012-11-29,42,32,21,25,20,16,86,61,34,30.24,30.17,30.13,10,10,10,15,4,23,0.00,4,,226
2012-11-30,35,30,24,27,7,-2,75,43,27,30.54,30.44,30.20,10,10,10,14,9,16,0.00,6,,353